Weather History for KPNM - October, 2012

Change the Weather History Date:

Sunday, October 28, 2012

  Actual Average Record
Temperature  
Mean Temperature 34 °F -  
Max Temperature 42 °F 48 °F 64 °F (1998)
Min Temperature 26 °F 31 °F 19 °F (2007)
Degree Days  
Heating Degree Days 31    
Moisture  
Dew Point 24 °F    
Average Humidity 68    
Maximum Humidity 86    
Minimum Humidity 49    
Precipitation  
Precipitation 0.00 in - - ()
Sea Level Pressure  
Sea Level Pressure 30.30 in    
Wind  
Wind Speed 3 mph (SE)    
Max Wind Speed 12 mph    
Max Gust Speed -    
Visibility 10 miles    
Events      
Averages and records for this station are not official NWS values.
T = Trace of Precipitation, MM = Missing Value Source: NWS Daily Summary

Daily Weather History Graph

Daily Weather History Graph

Search for Another Location

Airport or City:

Trip Planner

Search our weather history database for the weather conditions in past years. The results will help you decide how hot, cold, wet, or windy it might be!

Date:

Astronomy

Oct. 28, 2012 Rise Set
Actual Time 7:49 AM CDT 6:06 PM CDT
Civil Twilight 7:18 AM CDT 6:37 PM CDT
Nautical Twilight 6:43 AM CDT 7:11 PM CDT
Astronomical Twilight 6:09 AM CDT 7:46 PM CDT
Moon 5:24 PM CDT (10/28) 6:41 AM CDT (10/28)
Length of Visible Light 11h 18m
Length of Day
10h 17m
Waxing Gibbous, 99% of the Moon is Illuminated
Oct 28
Waxing Gibbous
Oct 29
Full
Nov 6
Last Quarter
Nov 13
New
Nov 20
First Quarter

Hourly Weather History & Observations

Time (CDT) Temp. Windchill Dew Point Humidity Pressure Visibility Wind Dir Wind Speed Gust Speed Precip Events Conditions
12:11 AM 28.4 °F - 21.2 °F 74% 30.32 in 10.0 mi Calm Calm - N/A   Scattered Clouds
12:32 AM 28.4 °F - 21.2 °F 74% 30.32 in 10.0 mi Calm Calm - N/A   Scattered Clouds
12:51 AM 28.4 °F - 21.2 °F 74% 30.32 in 10.0 mi Calm Calm - N/A   Mostly Cloudy
1:11 AM 28.4 °F - 23.0 °F 80% 30.32 in 10.0 mi Calm Calm - N/A   Overcast
1:31 AM 28.4 °F - 23.0 °F 80% 30.32 in 10.0 mi Calm Calm - N/A   Overcast
1:51 AM 28.4 °F - 23.0 °F 80% 30.31 in 10.0 mi Calm Calm - N/A   Overcast
2:11 AM 28.4 °F - 23.0 °F 80% 30.31 in 10.0 mi Calm Calm - N/A   Overcast
2:31 AM 28.4 °F - 23.0 °F 80% 30.31 in 10.0 mi Calm Calm - N/A   Mostly Cloudy
2:51 AM 28.4 °F 24.6 °F 23.0 °F 80% 30.31 in 10.0 mi SSE 3.5 mph - N/A   Overcast
3:11 AM 28.4 °F 24.6 °F 23.0 °F 80% 30.31 in 10.0 mi SSE 3.5 mph - N/A   Overcast
3:31 AM 30.2 °F 26.7 °F 23.0 °F 75% 30.30 in 10.0 mi SE 3.5 mph - N/A   Overcast
3:51 AM 30.2 °F - 23.0 °F 75% 30.30 in 10.0 mi Calm Calm - N/A   Mostly Cloudy
4:11 AM 28.4 °F - 24.8 °F 86% 30.30 in 10.0 mi Calm Calm - N/A   Mostly Cloudy
4:31 AM 28.4 °F - 24.8 °F 86% 30.30 in 10.0 mi Calm Calm - N/A   Scattered Clouds
4:52 AM 28.4 °F - 24.8 °F 86% 30.30 in 10.0 mi Calm Calm - N/A   Scattered Clouds
5:11 AM 28.4 °F - 24.8 °F 86% 30.30 in 10.0 mi Calm Calm - N/A   Mostly Cloudy
5:31 AM 26.6 °F - 23.0 °F 86% 30.30 in 10.0 mi Calm Calm - N/A   Overcast
5:52 AM 26.6 °F - 23.0 °F 86% 30.30 in 10.0 mi Calm Calm - N/A   Overcast
6:11 AM 26.6 °F - 23.0 °F 86% 30.30 in 10.0 mi Calm Calm - N/A   Scattered Clouds
6:31 AM 26.6 °F - 21.2 °F 80% 30.30 in 10.0 mi Calm Calm - N/A   Mostly Cloudy
6:51 AM 26.6 °F - 21.2 °F 80% 30.30 in 10.0 mi Calm Calm - N/A   Overcast
7:11 AM 26.6 °F 22.6 °F 23.0 °F 86% 30.30 in 10.0 mi SE 3.5 mph - N/A   Overcast
7:31 AM 28.4 °F 23.3 °F 23.0 °F 80% 30.31 in 10.0 mi SE 4.6 mph - N/A   Overcast
7:51 AM 28.4 °F 23.3 °F 23.0 °F 80% 30.31 in 10.0 mi SSE 4.6 mph - N/A   Mostly Cloudy
8:11 AM 28.4 °F 23.3 °F 23.0 °F 80% 30.32 in 10.0 mi SSE 4.6 mph - N/A   Mostly Cloudy
8:31 AM 28.4 °F 23.3 °F 24.8 °F 86% 30.32 in 10.0 mi SSE 4.6 mph - N/A   Overcast
8:51 AM 30.2 °F - 24.8 °F 80% 30.32 in 10.0 mi Calm Calm - N/A   Overcast
9:31 AM 33.8 °F 28.6 °F 26.6 °F 75% 30.32 in 10.0 mi SSE 5.8 mph - N/A   Overcast
9:51 AM 33.8 °F 27.7 °F 24.8 °F 70% 30.32 in 10.0 mi SSE 6.9 mph - N/A   Overcast
10:11 AM 33.8 °F 27.7 °F 24.8 °F 70% 30.32 in 10.0 mi South 6.9 mph - N/A   Mostly Cloudy
10:31 AM 35.6 °F 29.9 °F 24.8 °F 65% 30.32 in 10.0 mi South 6.9 mph - N/A   Mostly Cloudy
10:51 AM 35.6 °F 28.6 °F 24.8 °F 65% 30.32 in 10.0 mi South 9.2 mph - N/A   Overcast
11:11 AM 37.4 °F 32.1 °F 24.8 °F 60% 30.32 in 10.0 mi South 6.9 mph - N/A   Mostly Cloudy
11:31 AM 37.4 °F 31.4 °F 24.8 °F 60% 30.32 in 10.0 mi South 8.1 mph - N/A   Mostly Cloudy
11:51 AM 37.4 °F 30.3 °F 24.8 °F 60% 30.32 in 10.0 mi South 10.4 mph - N/A   Overcast
12:11 PM 37.4 °F 30.3 °F 24.8 °F 60% 30.32 in 10.0 mi South 10.4 mph - N/A   Overcast
12:31 PM 37.4 °F 30.8 °F 24.8 °F 60% 30.32 in 10.0 mi SSW 9.2 mph - N/A   Overcast
12:52 PM 37.4 °F 32.8 °F 26.6 °F 65% 30.31 in 10.0 mi South 5.8 mph - N/A   Mostly Cloudy
1:11 PM 37.4 °F 30.3 °F 26.6 °F 65% 30.31 in 10.0 mi South 10.4 mph - N/A   Overcast
1:31 PM 39.2 °F 32.0 °F 24.8 °F 56% 30.31 in 10.0 mi SSW 11.5 mph - N/A   Overcast
1:52 PM 37.4 °F 30.3 °F 26.6 °F 65% 30.31 in 10.0 mi South 10.4 mph - N/A   Overcast
2:11 PM 39.2 °F 32.5 °F 26.6 °F 61% 30.30 in 10.0 mi SSE 10.4 mph - N/A   Overcast
2:31 PM 41.0 °F 34.7 °F 26.6 °F 57% 30.29 in 10.0 mi South 10.4 mph - N/A   Mostly Cloudy
2:52 PM 41.0 °F 36.4 °F 24.8 °F 53% 30.29 in 10.0 mi South 6.9 mph - N/A   Mostly Cloudy
3:11 PM 42.8 °F 38.0 °F 24.8 °F 49% 30.28 in 10.0 mi SSE 8.1 mph - N/A   Mostly Cloudy
3:31 PM 42.8 °F 38.0 °F 24.8 °F 49% 30.28 in 10.0 mi South 8.1 mph - N/A   Overcast
3:52 PM 42.8 °F 37.0 °F 24.8 °F 49% 30.28 in 10.0 mi SSE 10.4 mph - N/A   Overcast
4:11 PM 42.8 °F 37.5 °F 24.8 °F 49% 30.28 in 10.0 mi South 9.2 mph - N/A   Overcast
4:31 PM 42.8 °F 38.0 °F 24.8 °F 49% 30.28 in 10.0 mi South 8.1 mph - N/A   Overcast
4:52 PM 41.0 °F 35.8 °F 24.8 °F 53% 30.28 in 10.0 mi SSE 8.1 mph - N/A   Mostly Cloudy
5:11 PM 41.0 °F 36.4 °F 24.8 °F 53% 30.28 in 10.0 mi SE 6.9 mph - N/A   Overcast
5:31 PM 41.0 °F 38.0 °F 24.8 °F 53% 30.28 in 10.0 mi ESE 4.6 mph - N/A   Mostly Cloudy
5:51 PM 39.2 °F - 24.8 °F 56% 30.27 in 10.0 mi Calm Calm - N/A   Overcast
6:11 PM 39.2 °F 35.9 °F 24.8 °F 56% 30.27 in 10.0 mi East 4.6 mph - N/A   Overcast
6:31 PM 39.2 °F - 24.8 °F 56% 30.28 in 10.0 mi Calm Calm - N/A   Overcast
6:51 PM 37.4 °F 34.9 °F 24.8 °F 60% 30.27 in 10.0 mi East 3.5 mph - N/A   Overcast
7:12 PM 37.4 °F - 23.0 °F 56% 30.28 in 10.0 mi Calm Calm - N/A   Mostly Cloudy
7:31 PM 37.4 °F 34.9 °F 23.0 °F 56% 30.28 in 10.0 mi East 3.5 mph - N/A   Overcast
7:51 PM 37.4 °F 34.9 °F 23.0 °F 56% 30.28 in 10.0 mi East 3.5 mph - N/A   Overcast
8:12 PM 37.4 °F 34.9 °F 23.0 °F 56% 30.28 in 10.0 mi East 3.5 mph - N/A   Overcast
8:51 PM 37.4 °F - 24.8 °F 60% 30.29 in 10.0 mi Calm Calm - N/A   Overcast
9:12 PM 37.4 °F 34.9 °F 24.8 °F 60% 30.28 in 10.0 mi ESE 3.5 mph - N/A   Overcast
9:31 PM 35.6 °F 31.7 °F 23.0 °F 60% 30.28 in 10.0 mi East 4.6 mph - N/A   Overcast
9:51 PM 35.6 °F 31.7 °F 23.0 °F 60% 30.28 in 10.0 mi East 4.6 mph - N/A   Mostly Cloudy
10:12 PM 33.8 °F 30.8 °F 23.0 °F 65% 30.28 in 10.0 mi East 3.5 mph - N/A   Clear
10:31 PM 33.8 °F 30.8 °F 23.0 °F 65% 30.28 in 10.0 mi East 3.5 mph - N/A   Clear
10:51 PM 33.8 °F 30.8 °F 23.0 °F 65% 30.28 in 10.0 mi East 3.5 mph - N/A   Clear
11:12 PM 33.8 °F 30.8 °F 23.0 °F 65% 30.29 in 10.0 mi East 3.5 mph - N/A   Mostly Cloudy
11:31 PM 33.8 °F 30.8 °F 23.0 °F 65% 30.29 in 10.0 mi East 3.5 mph - N/A   Mostly Cloudy
11:51 PM 32.0 °F 28.7 °F 24.8 °F 75% 30.29 in 10.0 mi East 3.5 mph - N/A   Mostly Cloudy